Retour au catalogue

FENGYUN 1C DEB

ActifPO
NORAD 30548·DEBRIS·🇨🇳 China

Lancé May 10, 1999 depuis Taiyuan Satellite Launch Center

Loading…

Prochains Passages (prochaines 24 heures)

TLE

FraisSource: Space-Track

Époque: Sep 11, 2026, 18:29 UTC

1 30548U 99025AKN 26254.77017630  .00002259  00000-0  89448-3 0  9999
2 30548  99.6757 186.5894 0064597 283.3719 105.6139 14.28944378179923

Suivez FENGYUN 1C DEB en temps réel avec AllMySat

Download on the App Store